Salinas, CA

1:24 PM PST on December 18, 2017 (GMT -0800)
Salinas Municipal

Weather History for KSNS - March, 2013

Change the Weather History Date:

Wednesday, March 6, 2013

  Actual Average Record
Temperature  
Mean Temperature 51 °F 54 °F  
Max Temperature 57 °F 64 °F 83 °F (1953)
Min Temperature 45 °F 45 °F 32 °F (1970)
Degree Days  
Heating Degree Days 14 11  
Month to date heating degree days 54 66  
Since 1 July heating degree days 1809 1880  
Cooling Degree Days 0 0  
Month to date cooling degree days 0 0  
Year to date cooling degree days 0 0  
Growing Degree Days 2 (Base 50)    
Moisture  
Dew Point 42 °F    
Average Humidity 72    
Maximum Humidity 93    
Minimum Humidity 51    
Precipitation  
Precipitation 0.11 in 0.08 in 0.78 in (1952)
Month to date precipitation 0.11 0.50  
Year to date precipitation 1.71 5.59  
Since 1 July precipitation 8.35  
Sea Level Pressure  
Sea Level Pressure 30.06 in    
Wind  
Wind Speed 8 mph (South)    
Max Wind Speed 26 mph    
Max Gust Speed 33 mph    
Visibility 10 miles    
Events Rain    
T = Trace of Precipitation, MM = Missing Value Source: NWS Daily Summary

Daily Weather History Graph

Daily Weather History Graph

Search for Another Location

Airport or City:

Trip Planner

Search our weather history database for the weather conditions in past years. The results will help you decide how hot, cold, wet, or windy it might be!

Date:

Astronomy

Mar. 06, 2013 Rise Set
Actual Time 6:29 AM PST 6:05 PM PST
Civil Twilight 6:03 AM PST 6:31 PM PST
Nautical Twilight 5:34 AM PST 7:01 PM PST
Astronomical Twilight 5:04 AM PST 7:31 PM PST
Moon 2:37 AM PST (3/6) 12:59 PM PST (3/6)
Length of Visible Light 12h 27m
Length of Day
11h 36m
Waning Crescent, 29% of the Moon is Illuminated
Mar 6
Waning Crescent
Mar 11
New
Mar 19
First Quarter
Mar 27
Full
Apr 2
Last Quarter

Hourly Weather History & Observations

Time (PST) Temp. Dew Point Humidity Pressure Visibility Wind Dir Wind Speed Gust Speed Precip Events Conditions
12:53 AM 50.0 °F 39.0 °F 66% 29.99 in 10.0 mi SE 20.7 mph 25.3 mph N/A   Overcast
1:53 AM 50.0 °F 39.9 °F 68% 29.98 in 10.0 mi SE 23.0 mph 32.2 mph N/A   Mostly Cloudy
2:53 AM 48.9 °F 41.0 °F 74% 29.98 in 10.0 mi SE 13.8 mph 26.5 mph 0.00 in Rain Light Rain
3:53 AM 48.0 °F 43.0 °F 83% 30.00 in 8.0 mi SE 16.1 mph 21.9 mph 0.00 in Rain Light Rain
4:24 AM 48.2 °F 44.6 °F 87% 29.97 in 6.0 mi ESE 16.1 mph 21.9 mph 0.01 in Rain Light Rain
4:53 AM 48.0 °F 44.1 °F 86% 30.02 in 10.0 mi ESE 12.7 mph 21.9 mph 0.04 in Rain Light Rain
5:15 AM 48.2 °F 44.6 °F 87% 29.99 in 10.0 mi ESE 11.5 mph - 0.00 in   Mostly Cloudy
5:43 AM 48.2 °F 44.6 °F 87% 30.01 in 10.0 mi SE 15.0 mph - 0.00 in   Overcast
5:53 AM 48.0 °F 45.0 °F 89% 30.04 in 10.0 mi SE 15.0 mph 20.7 mph 0.00 in Rain Light Rain
6:53 AM 48.0 °F 45.0 °F 89% 30.06 in 8.0 mi ESE 11.5 mph - 0.02 in Rain Light Rain
7:53 AM 48.9 °F 46.0 °F 90% 30.09 in 6.0 mi SE 8.1 mph - 0.02 in Rain Light Rain
8:16 AM 48.2 °F 46.4 °F 93% 30.07 in 7.0 mi ESE 6.9 mph - 0.03 in Rain Light Rain
8:53 AM 51.1 °F 46.0 °F 83% 30.11 in 10.0 mi Calm Calm - 0.03 in   Overcast
9:53 AM 53.1 °F 45.0 °F 74% 30.12 in 10.0 mi Calm Calm - N/A   Overcast
10:53 AM 55.0 °F 42.1 °F 62% 30.12 in 10.0 mi West 6.9 mph - N/A   Scattered Clouds
11:53 AM 55.9 °F 37.9 °F 51% 30.12 in 10.0 mi West 8.1 mph - N/A   Partly Cloudy
12:53 PM 57.0 °F 39.0 °F 51% 30.11 in 10.0 mi WNW 10.4 mph - N/A   Clear
1:53 PM 55.9 °F 37.0 °F 49% 30.10 in 10.0 mi West 12.7 mph - N/A   Clear
2:53 PM 55.9 °F 39.0 °F 53% 30.10 in 10.0 mi WNW 10.4 mph - N/A   Scattered Clouds
3:53 PM 55.0 °F 39.0 °F 55% 30.09 in 10.0 mi West 10.4 mph - N/A   Clear
4:53 PM 53.1 °F 39.9 °F 61% 30.08 in 10.0 mi West 10.4 mph - N/A   Clear
5:53 PM 52.0 °F 39.9 °F 63% 30.07 in 10.0 mi WSW 6.9 mph - N/A   Clear
6:53 PM 51.1 °F 41.0 °F 68% 30.07 in 10.0 mi West 3.5 mph - N/A   Clear
7:53 PM 51.1 °F 41.0 °F 68% 30.07 in 10.0 mi Calm Calm - N/A   Clear
8:53 PM 48.9 °F 41.0 °F 74% 30.07 in 10.0 mi Calm Calm - N/A   Clear
9:53 PM 46.9 °F 41.0 °F 80% 30.07 in 10.0 mi Calm Calm - N/A   Clear
10:53 PM 46.9 °F 39.9 °F 77% 30.06 in 10.0 mi Calm Calm - N/A   Partly Cloudy
11:53 PM 45.0 °F 39.0 °F 80% 30.05 in 10.0 mi Calm Calm - N/A   Clear